TimeEDT,TemperatureF,Dew PointF,Humidity,Sea Level PressureIn,VisibilityMPH,Wind Direction,Wind SpeedMPH,Gust SpeedMPH,PrecipitationIn,Events,Conditions,WindDirDegrees,DateUTC
12:53 AM,46.9,39.0,74,30.04,10.0,NNE,11.5,-,N/A,,Scattered Clouds,30,2013-03-18 04:53:00
1:53 AM,45.0,39.0,80,30.04,10.0,NE,12.7,-,N/A,,Mostly Cloudy,50,2013-03-18 05:53:00
2:45 AM,44.6,39.2,81,30.06,9.0,NNE,10.4,-,N/A,,Overcast,30,2013-03-18 06:45:00
2:53 AM,45.0,39.0,80,30.04,9.0,NE,11.5,20.7,N/A,,Overcast,40,2013-03-18 06:53:00
3:15 AM,44.6,39.2,81,30.06,8.0,NE,10.4,-,N/A,,Overcast,40,2013-03-18 07:15:00
3:53 AM,44.1,39.0,82,30.04,8.0,NE,13.8,-,N/A,,Overcast,40,2013-03-18 07:53:00
4:25 AM,42.8,39.2,87,30.05,7.0,NE,11.5,-,N/A,,Overcast,40,2013-03-18 08:25:00
4:53 AM,43.0,39.0,86,30.05,7.0,NE,11.5,20.7,N/A,,Overcast,40,2013-03-18 08:53:00
5:53 AM,42.1,39.0,89,30.07,7.0,NNE,12.7,-,N/A,,Overcast,30,2013-03-18 09:53:00
6:53 AM,41.0,39.0,93,30.06,7.0,NE,12.7,-,0.00,,Overcast,40,2013-03-18 10:53:00
7:53 AM,39.9,37.9,93,30.08,2.0,NE,11.5,-,N/A,,Overcast,50,2013-03-18 11:53:00
8:02 AM,39.2,37.4,93,30.09,3.0,NE,13.8,-,0.00,Rain,Light Rain,50,2013-03-18 12:02:00
8:14 AM,39.2,37.4,93,30.10,2.0,NE,9.2,-,0.00,Rain,Light Rain,50,2013-03-18 12:14:00
8:29 AM,39.2,39.2,100,30.09,4.0,NE,10.4,-,0.00,,Overcast,50,2013-03-18 12:29:00
8:53 AM,39.9,37.9,93,30.09,9.0,NE,13.8,-,0.00,,Overcast,50,2013-03-18 12:53:00
9:53 AM,39.9,37.9,93,30.07,2.0,NE,12.7,-,N/A,,Overcast,40,2013-03-18 13:53:00
10:33 AM,39.2,39.2,100,30.08,2.0,NNE,9.2,-,N/A,,Overcast,30,2013-03-18 14:33:00
10:53 AM,41.0,39.0,93,30.09,2.0,NE,11.5,-,N/A,,Overcast,40,2013-03-18 14:53:00
11:33 AM,41.0,39.2,93,30.08,2.5,NNE,10.4,-,N/A,,Overcast,30,2013-03-18 15:33:00
11:47 AM,41.0,39.2,93,30.07,3.0,NNE,10.4,-,0.01,,Overcast,30,2013-03-18 15:47:00
11:53 AM,41.0,39.9,96,30.08,4.0,NE,9.2,-,0.01,,Overcast,50,2013-03-18 15:53:00
12:53 PM,41.0,39.9,96,30.05,6.0,NNE,8.1,-,N/A,,Overcast,30,2013-03-18 16:53:00
1:05 PM,41.0,39.2,93,30.05,8.0,NNE,11.5,-,N/A,,Overcast,20,2013-03-18 17:05:00
1:53 PM,42.1,39.9,92,30.01,3.0,NNE,10.4,-,N/A,,Overcast,30,2013-03-18 17:53:00
2:53 PM,42.1,39.9,92,29.98,4.0,NNE,9.2,-,N/A,,Overcast,20,2013-03-18 18:53:00
3:19 PM,42.8,39.2,87,29.97,2.5,NNE,9.2,-,N/A,,Overcast,30,2013-03-18 19:19:00
3:26 PM,42.8,41.0,93,29.97,1.5,NNE,8.1,-,N/A,,Overcast,30,2013-03-18 19:26:00
3:53 PM,42.1,41.0,96,29.95,1.8,NE,6.9,-,N/A,,Overcast,50,2013-03-18 19:53:00
4:41 PM,42.8,42.8,100,29.93,3.0,NNE,8.1,-,0.01,Thunderstorm,Overcast,20,2013-03-18 20:41:00
4:53 PM,42.1,42.1,100,29.93,3.0,NE,6.9,-,0.01,Rain,Light Rain,40,2013-03-18 20:53:00
5:36 PM,42.8,41.0,93,29.91,5.0,NNE,10.4,-,0.00,Rain-Thunderstorm,Light Rain,20,2013-03-18 21:36:00
5:53 PM,42.1,41.0,96,29.93,4.0,North,6.9,-,0.00,Rain-Thunderstorm,Light Rain,360,2013-03-18 21:53:00
6:12 PM,42.8,41.0,93,29.92,1.8,NE,9.2,-,0.04,Rain-Thunderstorm,Heavy Rain,40,2013-03-18 22:12:00
6:46 PM,41.0,39.2,93,29.92,1.5,NE,12.7,18.4,0.14,Rain-Thunderstorm,Light Rain,50,2013-03-18 22:46:00
6:53 PM,42.1,39.9,92,29.92,0.5,NE,11.5,17.3,0.16,Fog-Rain-Thunderstorm,Thunderstorms and Rain,50,2013-03-18 22:53:00
6:55 PM,41.0,39.2,93,29.93,5.0,NE,10.4,-,0.00,Rain-Thunderstorm,Thunderstorms and Rain,40,2013-03-18 22:55:00
7:02 PM,42.8,39.2,87,29.93,1.5,NNE,13.8,-,0.02,Rain-Thunderstorm,Heavy Thunderstorms and Rain,30,2013-03-18 23:02:00
7:14 PM,41.0,39.2,93,29.94,4.0,NNE,12.7,-,0.06,Rain-Thunderstorm,Thunderstorms and Rain,20,2013-03-18 23:14:00
7:53 PM,42.1,39.9,92,30.00,6.0,Variable,3.5,-,0.13,Rain-Thunderstorm,Thunderstorms and Rain,0,2013-03-18 23:53:00
8:02 PM,41.0,39.2,93,29.98,3.0,Calm,Calm,-,0.05,Rain-Thunderstorm,Heavy Thunderstorms and Rain,0,2013-03-19 00:02:00
8:43 PM,41.0,41.0,100,29.92,9.0,East,6.9,-,0.19,Rain-Thunderstorm,Heavy Thunderstorms and Rain,90,2013-03-19 00:43:00
8:53 PM,41.0,41.0,100,29.88,10.0,East,10.4,-,0.19,Rain,Light Rain,100,2013-03-19 00:53:00
9:02 PM,41.0,41.0,100,29.87,10.0,East,8.1,-,0.01,Rain,Light Rain,100,2013-03-19 01:02:00
9:12 PM,41.0,41.0,100,29.88,10.0,East,3.5,-,0.01,,Overcast,90,2013-03-19 01:12:00
9:53 PM,42.1,41.0,96,29.88,10.0,Calm,Calm,-,0.01,,Overcast,0,2013-03-19 01:53:00
10:53 PM,42.1,42.1,100,29.87,7.0,NNE,8.1,-,N/A,,Overcast,20,2013-03-19 02:53:00
11:53 PM,42.1,42.1,100,29.88,2.5,NNE,3.5,-,N/A,,Overcast,20,2013-03-19 03:53:00